Regional Weather Roundup
Issued by NWS Charleston, SC

Current Version | Previous Version | Graphics & Text | Print | Product List | Glossary On
Versions: 1 2 3 4 5 6 7 8 9 10 11 12 13 14 15 16 17 18 19 20 21 22 23 24 25 26 27 28 29 30 31 32 33 34 35 36 37 38 39 40 41 42 43 44 45 46 47 48 49 50
000
ASUS42 KCHS 280628
RWRCHS

REGIONAL WEATHER ROUNDUP
NATIONAL WEATHER SERVICE CHARLESTON SC
200 AM EDT SUN AUG 28 2016

NOTE: "FAIR" INDICATES FEW OR NO CLOUDS BELOW 12,000 FEET WITH NO
SIGNIFICANT WEATHER AND/OR OBSTRUCTIONS TO VISIBILITY.

NOT ALL STATIONS ARE QUALITY CONTROLLED. USE DATA WITH CAUTION...
ESPECIALLY DEWPOINT OBSERVATIONS.

SCZ027-030-031-034>040-042>050-280700-
...SOUTHEAST SOUTH CAROLINA...

CITY           SKY/WX    TMP DP  RH WIND       PRES   REMARKS
N CHARLESTON   CLEAR     76  72  87 NE7       30.08F
6HR MIN TEMP:  76; 6HR MAX TEMP:  83;

WATERFRONT PRK   N/A     81  75  82 NE6       30.05F
MOUNT PLEASANT FAIR      75  73  94 CALM      30.08S
JOHNS ISLAND   FAIR      75  73  94 CALM      30.07F
PINOPOLIS        N/A     79  75  89 VRB2      30.02F
MONCKS CORNER  FAIR      72  70  94 CALM      30.09S
SUMMERVILLE    FAIR      72  72 100 CALM      30.09F
BEAUFORT MCAS  CLEAR     78  74  87 NE6       30.06F
6HR MIN TEMP:  77; 6HR MAX TEMP:  83;

BEAUFORT ARPT  FAIR      79  75  89 NE7       30.06F
HILTON HEAD IS PTCLDY    82  73  74 VRB7      30.06F
WALTERBORO     CLEAR     75  75 100 NE5       30.09S
ALLENDALE      MOCLDY    73  72  94 CALM      30.08F

...SOUTHERN MIDLANDS AND PEE DEE...

CITY           SKY/WX    TMP DP  RH WIND       PRES   REMARKS
GEORGETOWN     FAIR      72  70  94 CALM      30.09F
KINGSTREE      MOCLDY    73  70  88 CALM      30.11S
ORANGEBURG     PTCLDY    74  71  91 CALM      30.11F
6HR MIN TEMP:  74; 6HR MAX TEMP:  87;

BARNWELL       NOT AVBL
AIKEN          FAIR      73  68  83 CALM      30.15S
MANNING        FAIR      73  70  88 NE3       30.11S
COLUMBIA       CLOUDY    81  71  71 E6        30.11S
6HR MIN TEMP:  81; 6HR MAX TEMP:  90;

SUMTER         PTCLDY    77  71  83 NE5       30.10F
6HR MIN TEMP:  76; 6HR MAX TEMP:  87;

FLORENCE       CLOUDY    79  74  84 NE3       30.12F
6HR MIN TEMP:  79; 6HR MAX TEMP:  86;

MYRTLE BEACH   PTCLDY    81  68  65 N6        30.12S
N MYRTLE BEACH CLEAR     75  74  96 N5        30.10F
6HR MIN TEMP:  75; 6HR MAX TEMP:  83;


$$

GAZ063-065-086>088-099>101-113>116-118-119-134>141-150-280700-
...SOUTHEAST GEORGIA...

CITY           SKY/WX    TMP DP  RH WIND       PRES   REMARKS
SAVANNAH ARPT  CLEAR     78  73  84 NE6       30.06F
6HR MIN TEMP:  77; 6HR MAX TEMP:  81; 6HR PCP: TRACE;

HUNTER AAF     PTCLDY    79  78  98 NE2       30.03F
6HR MIN TEMP:  79; 6HR MAX TEMP:  81;

FORT STEWART   PTCLDY    75  73  94 CALM      30.04F
STATESBORO     CLEAR     75  73  96 CALM      30.08S
SYLVANIA       NOT AVBL
CLAXTON        FAIR      72  72 100 CALM      30.07F

...CSRA...CENTRAL AND FAR SOUTHEAST GEORGIA...

CITY           SKY/WX    TMP DP  RH WIND       PRES   REMARKS
THOMSON        CLEAR     76  73  89 MISG      30.15S
AUGUSTA-BUSH   MOCLDY    75  71  87 CALM      30.09F
6HR MIN TEMP:  74; 6HR MAX TEMP:  85;

AUGUSTA-DANIEL CLEAR     80  69  69 E5        30.11F
SWAINSBORO     FAIR      75  70  83 E5        30.08F
VIDALIA        CLEAR     77  75  94 E7        30.07S
EASTMAN        FAIR      77  68  74 E3        30.09S
HAZLEHURST     FAIR      78  78 100 CALM      30.05S
ALMA           CLEAR     76  74  93 E6        30.04F
6HR MIN TEMP:  75; 6HR MAX TEMP:  84;

WAYCROSS         N/A     78  78  99 NE3       30.04S
JESUP          FAIR      77  77 100 NE3       30.05F
BAXLEY         FAIR      77  77 100 E7        30.04F
BRUNSWICK      CLEAR     77  77 100 CALM      30.04F
SAINT SIMONS   PTCLDY    81  75  82 E8        30.03F
6HR MIN TEMP:  81; 6HR MAX TEMP:  82;


$$

SCZ027-028-034-036>038-045-046-048>050-GAZ119-141-280700-
...LAKE AND SUPPLEMENTAL COASTAL OBSERVATIONS...

STATION/POSITION TIME  TEMP    WIND        PRES    WAVE   SWELL
                       AIR SEA DIR/SP/G            HT/PER HT/PER/DIR
                 (UTC) (F)     (DEG/KT/KT) (MB)    (FT/S) (FT/S/D)
WINYAH BAY       0545   79      40/  3     1018.0F
LAKE MURRAY      0500   80      CALM  /  4 1019.3S
ACE BASIN NERRS  0500   77        CALM     1019.0S
FORT PULASKI     0600   83 85  100/ 10/ 13 1017.9F
SAPELO ISLAND    0600   81      60/  5     1017.0F

$$

ANZ835-935-AMZ111-154-330-350-352-354-370-450-454-472-280700-
...C-MAN AND BUOY OBSERVATIONS...

STATION/POSITION TIME  TEMP    WIND        PRES    WAVE   SWELL
                       AIR SEA DIR/SP/G            HT/PER HT/PER/DIR
                 (UTC) (F)     (DEG/KT/KT) (MB)    (FT/S) (FT/S/D)
BUOY 41004       0550   83 84   60/ 10/ 12 1017.7F   4/ 8   3/120/ 8
BUOY 41008       0550   83 85   80/ 14/ 16 1016.8F   4/ 8   2/110/ 8
FOLLY BEACH CMAN 0600   83      90/ 11/ 12 1018.5F
CAPERS NEARSHORE 0608   83 84   90/ 10/ 14 1018.0F
FRIPP NEARSHORE  0508   84 86  100/ 12/ 16 1017.7F


STATION/POSITION TIME  TEMP    WIND        PRES    WAVE   SWELL
                       AIR SEA DIR/SP/G            HT/PER HT/PER/DIR
                 (UTC) (F)     (DEG/KT/KT) (MB)    (FT/S) (FT/S/D)
5E ST. MARYS GA  0601      85                N/A     4/ 9
FRYING PAN BUOY  0600   83 84   70/  6/  8 1018.5F
BUOY 41025       0550   77 84  330/ 12/ 16 1019.5F   3/ 9   3/100/ 9
CAPE LOOKOUT NC  0600   82      50/ 11/ 12 1019.1F
BUOY 41002       0550   82 84   60/ 10/ 14 1017.1F   4/ 8   3/140/ 8
BUOY 41010       NOT AVBL
ST AUGUSTINE FL  0600   82 84   60/ 12/ 13 1016.5F


$$




USA.gov is the U.S. government's official web portal to all federal, state and local government web resources and services.